• In Portugal
  • List of Countries
  • For 7 days
  • Water Temperature
  • Satellite Maps
  • Weather Map
  • Weather Widgets
  • user-avatar
    Login

    Hourly Weather Mercin

    Today, 23 June, Saturday

    Time Temperature Precipitation Wind Pressure Humidity
    00:00 +26°C° 0 mm 2 mps 756 mmHg 77%
    01:00 +26°C° 0 mm 2 mps 756 mmHg 78%
    02:00 +26°C° 0 mm 2 mps 756 mmHg 75%
    03:00 +26°C° 0 mm 2 mps 756 mmHg 74%
    04:00 +26°C° 0 mm 2 mps 756 mmHg 73%
    05:00 +26°C° 0 mm 2 mps 756 mmHg 73%
    06:00 +27°C° 0 mm 2 mps 756 mmHg 67%
    07:00 +29°C° 0 mm 2 mps 756 mmHg 61%
    08:00 +30°C° 0 mm 2 mps 756 mmHg 57%
    09:00 +31°C° 0 mm 3 mps 756 mmHg 54%
    10:00 +33°C° 0 mm 3 mps 756 mmHg 51%
    11:00 +34°C° 0 mm 3 mps 756 mmHg 48%
    12:00 +35°C° 0.2 mm 4 mps 756 mmHg 48%
    13:00 +35°C° 0.2 mm 4 mps 756 mmHg 49%
    14:00 +35°C° 0.2 mm 5 mps 755 mmHg 49%
    15:00 +34°C° 0.3 mm 5 mps 755 mmHg 50%
    16:00 +34°C° 0.3 mm 5 mps 755 mmHg 51%
    17:00 +34°C° 0.3 mm 5 mps 755 mmHg 51%
    18:00 +32°C° 0.1 mm 4 mps 755 mmHg 57%
    19:00 +30°C° 0.1 mm 3 mps 755 mmHg 62%
    20:00 +29°C° 0.1 mm 2 mps 755 mmHg 68%
    21:00 +28°C° 0 mm 2 mps 755 mmHg 69%
    22:00 +28°C° 0 mm 2 mps 755 mmHg 71%
    23:00 +28°C° 0 mm 2 mps 756 mmHg 72%

    Tomorrow, 24 June, Sunday

    Time Temperature Precipitation Wind Pressure Humidity
    00:00 +27°C° 0 mm 2 mps 756 mmHg 73%
    01:00 +27°C° 0 mm 2 mps 755 mmHg 74%
    02:00 +27°C° 0 mm 1 mps 755 mmHg 74%
    03:00 +27°C° 0 mm 1 mps 755 mmHg 75%
    04:00 +26°C° 0 mm 1 mps 755 mmHg 75%
    05:00 +26°C° 0 mm 1 mps 755 mmHg 75%
    06:00 +28°C° 0 mm 1 mps 755 mmHg 68%
    07:00 +29°C° 0 mm 1 mps 755 mmHg 61%
    08:00 +31°C° 0 mm 2 mps 755 mmHg 54%
    09:00 +32°C° 0 mm 2 mps 755 mmHg 51%
    10:00 +34°C° 0 mm 3 mps 755 mmHg 48%
    11:00 +35°C° 0 mm 3 mps 755 mmHg 45%
    12:00 +36°C° 0.3 mm 4 mps 755 mmHg 46%
    13:00 +36°C° 0.3 mm 4 mps 755 mmHg 46%
    14:00 +36°C° 0.3 mm 5 mps 755 mmHg 46%
    15:00 +36°C° 0.3 mm 5 mps 755 mmHg 48%
    16:00 +35°C° 0.3 mm 5 mps 754 mmHg 50%
    17:00 +35°C° 0.3 mm 5 mps 754 mmHg 51%
    18:00 +33°C° 0.1 mm 4 mps 754 mmHg 57%
    19:00 +31°C° 0.1 mm 3 mps 754 mmHg 63%
    20:00 +30°C° 0.1 mm 3 mps 755 mmHg 68%
    21:00 +29°C° 0 mm 2 mps 755 mmHg 70%
    22:00 +29°C° 0 mm 2 mps 755 mmHg 72%
    23:00 +28°C° 0 mm 2 mps 755 mmHg 74%

    Day after tomorrow, 25 June, Monday

    Time Temperature Precipitation Wind Pressure Humidity
    00:00 +28°C° 0 mm 1 mps 755 mmHg 74%
    01:00 +28°C° 0 mm 1 mps 755 mmHg 75%
    02:00 +27°C° 0 mm 1 mps 754 mmHg 75%
    03:00 +27°C° 0 mm 1 mps 754 mmHg 75%
    04:00 +27°C° 0 mm 1 mps 754 mmHg 75%
    05:00 +27°C° 0 mm 1 mps 754 mmHg 75%
    06:00 +29°C° 0 mm 1 mps 754 mmHg 68%
    07:00 +30°C° 0 mm 1 mps 754 mmHg 61%
    08:00 +32°C° 0 mm 2 mps 755 mmHg 55%
    09:00 +34°C° 0 mm 2 mps 754 mmHg 53%
    10:00 +35°C° 0 mm 3 mps 754 mmHg 50%
    11:00 +36°C° 0 mm 3 mps 754 mmHg 48%
    12:00 +36°C° 0.2 mm 4 mps 754 mmHg 48%
    13:00 +36°C° 0.2 mm 4 mps 754 mmHg 48%
    14:00 +36°C° 0.2 mm 4 mps 754 mmHg 48%
    15:00 +36°C° 0.3 mm 4 mps 754 mmHg 50%
    16:00 +35°C° 0.3 mm 4 mps 754 mmHg 51%
    17:00 +35°C° 0.3 mm 4 mps 753 mmHg 53%
    18:00 +33°C° 0.2 mm 4 mps 754 mmHg 59%
    19:00 +31°C° 0.2 mm 3 mps 754 mmHg 64%
    20:00 +30°C° 0.2 mm 3 mps 754 mmHg 70%
    21:00 +29°C° 0 mm 2 mps 754 mmHg 72%
    22:00 +29°C° 0 mm 2 mps 754 mmHg 74%
    23:00 +29°C° 0 mm 2 mps 755 mmHg 76%

    26 June, Tuesday

    Time Temperature Precipitation Wind Pressure Humidity
    00:00 +28°C° 0 mm 1 mps 754 mmHg 77%
    01:00 +28°C° 0 mm 1 mps 754 mmHg 79%
    02:00 +27°C° 0 mm 1 mps 754 mmHg 80%
    03:00 +27°C° 0 mm 1 mps 754 mmHg 81%
    04:00 +27°C° 0 mm 1 mps 754 mmHg 81%
    05:00 +27°C° 0 mm 1 mps 754 mmHg 82%
    06:00 +29°C° 0 mm 1 mps 754 mmHg 75%
    07:00 +30°C° 0 mm 1 mps 754 mmHg 68%
    08:00 +32°C° 0 mm 2 mps 754 mmHg 61%
    09:00 +34°C° 0 mm 2 mps 754 mmHg 58%
    10:00 +35°C° 0 mm 3 mps 754 mmHg 55%
    11:00 +36°C° 0 mm 3 mps 754 mmHg 52%
    12:00 +36°C° 0 mm 4 mps 754 mmHg 52%
    13:00 +36°C° 0 mm 4 mps 754 mmHg 51%
    14:00 +36°C° 0 mm 5 mps 753 mmHg 51%
    15:00 +36°C° 0 mm 5 mps 753 mmHg 50%
    16:00 +36°C° 0 mm 4 mps 753 mmHg 50%
    17:00 +35°C° 0 mm 4 mps 753 mmHg 50%
    18:00 +34°C° 0 mm 4 mps 754 mmHg 56%
    19:00 +31°C° 0 mm 3 mps 754 mmHg 62%
    20:00 +29°C° 0 mm 3 mps 755 mmHg 68%
    21:00 +29°C° 0 mm 2 mps 755 mmHg 68%
    22:00 +28°C° 0 mm 2 mps 755 mmHg 69%
    23:00 +28°C° 0 mm 2 mps 755 mmHg 70%

    27 June, Wednesday

    Time Temperature Precipitation Wind Pressure Humidity
    00:00 +27°C° 0 mm 2 mps 755 mmHg 67%
    01:00 +27°C° 0 mm 2 mps 755 mmHg 65%
    02:00 +26°C° 0 mm 1 mps 755 mmHg 62%
    03:00 +26°C° 0 mm 1 mps 755 mmHg 61%
    04:00 +26°C° 0 mm 1 mps 755 mmHg 60%
    05:00 +26°C° 0 mm 1 mps 755 mmHg 59%
    06:00 +28°C° 0 mm 1 mps 756 mmHg 54%
    07:00 +30°C° 0 mm 2 mps 756 mmHg 48%
    08:00 +32°C° 0 mm 2 mps 756 mmHg 42%
    09:00 +34°C° 0 mm 2 mps 756 mmHg 39%
    10:00 +35°C° 0 mm 3 mps 756 mmHg 36%
    11:00 +36°C° 0 mm 3 mps 756 mmHg 33%
    12:00 +37°C° 0 mm 3 mps 756 mmHg 33%
    13:00 +37°C° 0 mm 4 mps 755 mmHg 33%
    14:00 +38°C° 0 mm 4 mps 755 mmHg 33%
    15:00 +37°C° 0 mm 4 mps 755 mmHg 34%
    16:00 +37°C° 0 mm 4 mps 755 mmHg 35%
    17:00 +36°C° 0 mm 4 mps 755 mmHg 36%
    18:00 +35°C° 0 mm 3 mps 755 mmHg 41%
    19:00 +33°C° 0 mm 3 mps 755 mmHg 45%
    20:00 +30°C° 0 mm 2 mps 755 mmHg 50%
    21:00 +30°C° 0 mm 2 mps 755 mmHg 49%
    22:00 +29°C° 0 mm 2 mps 755 mmHg 48%
    23:00 +29°C° 0 mm 1 mps 755 mmHg 47%

    28 June, Thursday

    Time Temperature Precipitation Wind Pressure Humidity
    00:00 +29°C° 0 mm 1 mps 755 mmHg 46%
    01:00 +28°C° 0 mm 1 mps 755 mmHg 46%
    02:00 +28°C° 0 mm 1 mps 755 mmHg 45%
    03:00 +28°C° 0 mm 1 mps 755 mmHg 45%
    04:00 +28°C° 0 mm 1 mps 755 mmHg 46%
    05:00 +28°C° 0 mm 1 mps 755 mmHg 46%
    06:00 +30°C° 0 mm 1 mps 755 mmHg 42%
    07:00 +33°C° 0 mm 1 mps 755 mmHg 37%
    08:00 +36°C° 0 mm 2 mps 755 mmHg 32%
    09:00 +37°C° 0 mm 2 mps 755 mmHg 31%
    10:00 +38°C° 0 mm 3 mps 754 mmHg 30%
    11:00 +41°C° 0 mm 4 mps 754 mmHg 29%
    12:00 +41°C° 0 mm 4 mps 754 mmHg 29%
    13:00 +41°C° 0 mm 4 mps 754 mmHg 30%
    14:00 +42°C° 0 mm 5 mps 753 mmHg 30%
    15:00 +41°C° 0 mm 5 mps 753 mmHg 31%
    16:00 +41°C° 0 mm 4 mps 753 mmHg 32%
    17:00 +40°C° 0 mm 4 mps 753 mmHg 33%
    18:00 +37°C° 0 mm 4 mps 753 mmHg 40%
    19:00 +35°C° 0 mm 3 mps 753 mmHg 46%
    20:00 +33°C° 0 mm 3 mps 753 mmHg 53%
    21:00 +32°C° 0 mm 2 mps 753 mmHg 55%
    22:00 +31°C° 0 mm 2 mps 753 mmHg 57%
    23:00 +30°C° 0 mm 2 mps 754 mmHg 58%
    Show more